Location: Newark
(54.1978°N, 18.3264°E)
Time: 10:21:36
(UTC+00:00)

OTV 5 (USA 277) - Pass Details

Date: 25 August 2019
Orbit: 295 x 339 km, 54.5° (Epoch: 08 September)

Event Time Altitude Azimuth Distance (km) Brightness Sun altitude
Rises 19:44:39 0° 231° (SW) 1,993 ? -14.4°
Reaches altitude 10° 19:46:39 10° 222° (SW) 1,167 ? -14.7°
Enters shadow 19:48:05 25° 200° (SSW) 664 ? -14.8°
